Flag for Canada Weather past 2 weeks in Cranbrook, British Columbia, Canada

Now
93 °F

Broken clouds.


Feels Like: 89 °F
Forecast: 65 / 94 °F
Wind: 3 mph from Northeast

Location: Cranbrook

Current Time: Jul 29, 2014 at 6:21:03 PM

Latest Report: Jul 29, 2014 at 5:00 PM


Visibility: 25 mi

Pressure: 29.99 "Hg

Humidity: 14%

Dew point: 37 °F

Location of CranbrookLocation

Historic Weather in Cranbrook — Graph

°F

Cranbrook temperature yesterday

Maximum temperature yesterday: 93 °F (at 5:00 PM)
Minimum temperature yesterday: 59 °F (at 6:00 AM)
Average temperature yesterday: 74 °F

Past Weeks' High & Low Weather Summary

 TemperatureHumidityPressure
High95 °F (Jul 16, 7:00 PM)94% (Jul 21, 6:00 AM)30.26 "Hg (Jul 21, 6:00 AM)
Low48 °F (Jul 26, 6:00 AM)13% (Jul 29, 4:00 PM)29.62 "Hg (Jul 17, 5:00 PM)
Average70 °F45%29.95 "Hg
* Reported Jul 14 5:00 PM — Jul 29 5:00 PM, Cranbrook, Weather by CustomWeather, © 2014

Note: Actual official high and low records may vary slightly from our data, if they occured in-between our weather recording intervals... More about our weather records

Advertising

Cranbrook weather history for previous 24 hours

 ConditionsComfort  
Time TempWeatherWind HumidityBarometerVisibility
5:00 PM
Jul 29
93 °FBroken clouds.3 mph14%29.99 "Hg25 mi
4:00 PM95 °FScattered clouds.7 mph13%30.01 "Hg25 mi
3:00 PM95 °FScattered clouds.6 mph14%30.02 "Hg25 mi
2:00 PM91 °FPassing clouds.6 mph17%30.05 "Hg20 mi
1:00 PM88 °FPassing clouds.3 mph21%30.09 "Hg20 mi
12:00 PM84 °FPassing clouds.6 mph23%30.11 "Hg20 mi
11:00 AM77 °FPassing clouds.2 mph30%30.13 "Hg20 mi
10:00 AM73 °FSunny.2 mph36%30.14 "Hg25 mi
9:00 AM70 °FSunny.5 mph38%30.15 "Hg25 mi
8:00 AM64 °FSunny.5 mph46%30.15 "Hg25 mi
7:00 AM61 °FClear.5 mph48%30.14 "Hg25 mi
6:00 AM61 °FClear.5 mph48%30.12 "Hg25 mi
5:00 AM63 °FClear.6 mph45%30.10 "Hg25 mi
4:00 AM64 °FClear.5 mph43%30.10 "Hg25 mi
3:00 AM66 °FClear.5 mph40%30.09 "Hg25 mi
2:00 AM66 °FClear.7 mph43%30.09 "Hg25 mi
1:00 AM64 °FClear.5 mph49%30.10 "Hg25 mi
12:00 AM66 °FPassing clouds.7 mph43%30.09 "Hg25 mi
11:00 PM
Jul 28
75 °FPassing clouds.7 mph34%30.08 "Hg25 mi
10:00 PM79 °FPassing clouds.6 mph28%30.06 "Hg25 mi
9:00 PM84 °FPassing clouds.2 mph22%30.04 "Hg25 mi
8:00 PM90 °FScattered clouds.5 mph17%30.03 "Hg25 mi
7:00 PM91 °FScattered clouds.6 mph15%30.03 "Hg25 mi
6:00 PM91 °FScattered clouds.5 mph16%30.04 "Hg25 mi
Weather by CustomWeather, © 2014

See weather overviewHow to use our weather pages